Regional Weather Roundup
Issued by NWS

Home | Current Version | Previous Version | Text Only | Print | Product List | Glossary On
Versions: 1 2 3 4 5 6 7 8 9 10 11 12 13 14 15 16 17 18 19 20 21 22 23 24 25 26 27 28 29 30 31 32 33 34 35 36 37 38 39 40 41 42 43 44 45 46 47 48 49 50
000
ASCA42 TJSJ 240711
RWRPR
PUERTO RICO/U.S. VIRGIN ISLANDS HOURLY WEATHER ROUNDUP
NATIONAL WEATHER SERVICE SAN JUAN PR
300 AM AST THU JUL 24 2014

PRZ001-004-240800-
PUERTO RICO

CITY           SKY/WX    TMP DP  RH WIND       PRES   REMARKS
SAN JUAN LMM   PTCLDY    82  75  78 NE14      30.03F
PONCE          PTCLDY    81  72  74 NE12      29.99
AGUADILLA      MOCLDY    79  73  83 E7        30.04F
CEIBA          CLOUDY    82  73  74 E12       30.05F
$$

PRZ006-007-240800-
U.S. VIRGIN ISLANDS

CITY           SKY/WX    TMP DP  RH WIND       PRES   REMARKS
CHARLOTTE AMA  MOCLDY    82  75  78 E12G22    30.02F
CHRISTIANSTED  MOCLDY    81  72  74 E15G21    30.01F
$$

HOURLY WEATHER ROUNDUP FOR THE NEWS MEDIA

CITY           SKY/WX    TMP DP  RH WIND       PRES   REMARKS
MIAMI          PTCLDY    82  75  79 CALM      30.02F
ORLANDO        CLEAR     79  77  94 SW5       30.02S
NEW YORK       MOCLDY    76  68  76 NW13      29.80S
NEWARK         MOCLDY    73  69  87 NW7       29.80F
CHICAGO        CLEAR     59  50  72 N7        30.14S
HARTFORD       MOCLDY    70  68  93 CALM      29.75F
BOSTON         CLOUDY    75  67  76 NW6       29.75F
DALLAS         MOCLDY    77  67  71 NW8       29.98F
PHILADELPHIA   CLOUDY    75  66  73 N10       29.83F


USA.gov is the U.S. government's official web portal to all federal, state and local government web resources and services.